Regional Weather Roundup
Issued by NWS

Home | Current Version | Previous Version | Graphics & Text | Print | Product List | Glossary On
Versions: 1 2 3 4 5 6 7 8 9 10 11 12 13 14 15 16 17 18 19 20 21 22 23 24 25 26 27 28 29 30 31 32 33 34 35 36 37 38 39 40 41 42 43 44 45 46 47 48 49 50
237
ASUS44 KLIX 230301
RWRLA
LOUISIANA WEATHER ROUNDUP
NATIONAL WEATHER SERVICE NEW ORLEANS LA
1000 PM CDT WED OCT 22 2014

NOTE: "FAIR" INDICATES FEW OR NO CLOUDS BELOW 12,000 FEET WITH NO
      SIGNIFICANT WEATHER AND/OR OBSTRUCTIONS TO VISIBILITY.
      SKY/WX - SKY CONDITION AND SIGNIFICANT WEATHER.
      TMP - AIR TEMPERATURE.    DP   - DEWPOINT TEMPERATURE.
      RH  - RELATIVE HUMIDITY.  PRES - PRESSURE.
      HX  - HEAT INDEX.         WCI  - WIND CHILL INDEX.

*  THESE STATIONS ARE NOT NWS OR FAA STATIONS AND ARE NOT UNDER
   NWS QUALITY CONTROL.

LAZ040-048-061>063-065-066-069-230400-
SOUTHEAST LOUISIANA

CITY           SKY/WX    TMP DP  RH WIND       PRES   REMARKS
N.O. AUDUBON   NOT AVBL
N.O. INTL ARPT CLEAR     71  53  52 NE9       30.07R
N.O. LAKEFRONT LGT RAIN  72  55  55 NE18      30.08R
N.O. DOWNTOWN* FAIR      72  52  49 N6        30.08R
SLIDELL        CLEAR     58  53  84 CALM      30.08R
BATON ROUGE    CLEAR     60  54  80 N5        30.09R
BOOTHVILLE     CLEAR     70  62  76 N3        30.06R
BELLE CHASSE   CLEAR     58  54  86 N3        30.07R
BOGALUSA*        N/A     54  49  85 CALM      30.11R
NEW ROADS*     FAIR      60  54  78 NE5       30.10R
GONZALES*      FAIR      59  59 100 N3        30.08R
HAMMOND*       NOT AVBL
HOUMA*         CLEAR     58  56  93 CALM      30.07R
PORT FOURCHON* CLEAR     72  61  68 E7        30.09R

$$

LAZ041-044-053-054-230400-
SOUTHWEST LOUISIANA

CITY           SKY/WX    TMP DP  RH WIND       PRES   REMARKS
LAKE CHARLES   CLEAR     64  54  69 NE7       30.09R
LAFAYETTE      CLEAR     63  55  75 N7        30.09R
PATTERSON      CLEAR     61  57  88 CALM      30.09S
SALT POINT       N/A     66  60  81 CALM      30.06R
NEW IBERIA     CLEAR     65  56  72 NE8       30.08R
CHENAULT AIRPK CLEAR     64  54  70 N5        30.10R

$$

LAZ027-028-230400-
CENTRAL LOUISIANA

CITY           SKY/WX    TMP DP  RH WIND       PRES   REMARKS
FORT POLK      CLEAR     63  54  73 N6        30.11R
ALEXANDRIA INT CLEAR     60  53  77 N6        30.11R
ALEXANDRIA     CLEAR     55  52  89 CALM      30.12R

$$

LAZ001-002-230400-
NORTHWEST LOUISIANA

CITY           SKY/WX    TMP DP  RH WIND       PRES   REMARKS
SHREVEPORT     CLEAR     62  53  72 E6        30.15R
BARKSDALE AFB  CLEAR     60  53  77 NE5       30.16R
DTN SHREVEPORT CLEAR     57  52  83 CALM      30.16R

$$

LAZ014-016-230400-
NORTHEAST LOUISIANA

CITY           SKY/WX    TMP DP  RH WIND       PRES   REMARKS
MONROE         CLEAR     55  48  77 NE5       30.16R
TALLULAH       CLEAR     57  48  72 NE8       30.14R

$$




USA.gov is the U.S. government's official web portal to all federal, state and local government web resources and services.